Lid_Strength_Index
4 4 5 5 5 5 5 6 6 6 5 5 5 5 5 5 5 8 9 8 9 13 11 10 9 12 12 12 14 12 12 11 12 14 14 14 15 14 15 13 14 15 16 16 15 17 17 8 8 12 10 8 7 7
5 5 5 5 5 5 5 5 6 5 5 6 5 5 5 5 5 6 11 9 9 11 12 9 8 8 9 9 11 12 12 12 11 13 12 13 14 15 16 17 11 16 13 15 13 14 9 8 8 7 6 7 7 7
5 5 5 5 5 5 5 5 5 5 5 4 4 4 4 4 4 5 9 10 10 12 12 12 11 8 7 7 7 11 11 9 9 8 11 13 15 14 17 16 14 11 10 13 12 10 9 7 6 6 5 6 6 6
5 5 5 5 5 5 5 4 4 5 4 4 4 4 4 4 4 4 8 9 7 8 11 12 7 8 6 7 7 7 8 8 8 9 12 14 16 12 15 13 13 11 10 11 11 9 8 7 6 6 6 5 5 5
5 5 5 4 4 4 4 4 4 4 4 4 4 3 3 3 3 5 7 7 5 8 12 11 8 7 7 7 7 6 8 9 10 11 13 14 13 13 12 12 13 10 10 12 12 8 8 8 6 5 6 6 6 6
4 3 3 4 4 4 4 4 3 3 3 3 3 3 3 3 3 7 9 4 4 5 8 13 10 9 8 7 7 7 7 8 9 11 12 12 9 11 15 15 10 9 7 7 8 7 7 7 5 5 6 6 6 7
3 3 3 3 3 3 3 3 3 3 3 3 3 3 3 3 6 10 10 6 3 6 9 12 13 9 5 6 7 6 7 8 8 9 11 11 9 8 13 15 10 8 7 6 6 6 7 6 7 6 7 7 7 7
2 2 3 3 2 2 2 3 2 2 3 3 3 2 2 2 4 7 6 4 4 8 9 13 13 10 4 8 8 5 8 8 9 9 9 10 8 10 12 10 8 7 6 6 5 5 6 6 7 8 7 8 9 9
2 2 2 2 1 2 2 2 1 2 2 2 2 1 4 5 9 8 1 1 4 7 11 11 14 14 6 7 7 6 6 9 7 9 10 9 12 12 10 10 9 7 7 6 5 5 7 8 7 7 7 8 9 9
0 1 0 0 0 1 1 1 1 1 1 1 3 5 7 5 0 2 6 7 6 6 6 10 10 13 8 8 8 8 8 10 12 9 8 11 11 9 8 8 7 6 5 5 8 9 8 8 8 8 8 8 8 9
-0 -1 -1 -0 -0 -0 -0 0 0 1 1 4 5 5 3 0 6 7 8 9 8 10 9 10 10 12 9 12 12 8 9 9 13 11 11 12 12 8 6 6 5 4 6 7 7 6 7 7 7 7 7 7 7 7
-1 -1 -1 -1 -0 -1 0 0 -0 2 3 3 4 3 5 7 8 9 10 10 10 12 8 10 9 9 9 7 10 8 11 10 13 8 11 13 10 7 6 5 6 6 6 6 5 5 5 5 5 6 6 7 8 8
-1 -1 -0 0 -0 -1 0 0 0 -0 1 4 5 6 8 9 14 11 13 11 11 8 7 7 8 7 7 7 9 9 12 12 8 11 13 11 8 6 6 5 5 5 5 5 5 5 5 5 4 5 6 6 7 7
-1 -0 0 0 1 0 1 0 -0 1 4 7 8 15 11 11 10 10 10 11 7 8 7 7 8 8 7 9 9 12 10 9 13 15 14 10 8 6 5 4 5 5 5 5 5 5 5 5 5 4 5 6 6 7
-0 -0 0 1 1 0 0 0 1 2 5 8 7 14 10 8 6 6 6 6 6 5 6 7 7 7 9 10 9 10 12 14 13 13 11 8 7 6 5 5 5 5 5 5 5 5 5 5 5 6 6 6 6 6
-0 0 1 1 1 1 1 1 3 4 5 7 7 9 8 8 8 7 7 7 4 5 6 6 8 10 11 10 12 12 13 14 12 9 8 7 6 5 5 5 4 4 5 5 5 5 5 5 6 6 6 6 6 6
0 2 -0 -1 -0 0 0 3 4 5 6 7 9 7 8 8 8 8 6 6 5 7 9 8 11 12 9 12 12 10 12 10 9 8 7 6 6 6 5 4 4 4 4 5 4 5 5 5 6 6 7 7 7 6
1 0 -1 -1 0 1 3 4 5 6 8 8 10 8 8 7 8 7 6 6 8 8 8 9 7 10 12 13 12 11 8 7 7 7 7 6 5 5 5 5 4 4 4 4 4 4 5 6 7 8 7 7 8 8
0 1 -0 -0 1 3 5 4 5 9 8 8 8 8 7 7 6 6 6 6 6 6 8 9 9 10 10 9 10 8 9 8 8 7 6 6 6 5 5 5 4 5 4 6 5 6 5 6 7 7 8 8 9 8
-0 -0 0 0 1 5 6 6 3 7 9 9 8 8 8 8 7 7 7 7 7 8 10 11 11 10 9 8 7 7 7 7 6 8 8 7 6 6 6 6 5 5 5 6 6 6 6 6 6 7 7 8 8 9
2 1 0 2 4 5 8 7 8 7 7 8 7 8 9 8 8 8 8 6 9 10 11 9 9 7 6 5 5 6 7 6 7 8 8 8 6 7 6 5 4 5 6 6 6 7 6 7 6 6 7 7 7 8
1 -0 3 3 5 5 7 6 8 7 9 9 9 9 10 10 10 9 7 9 9 9 9 9 8 7 5 6 6 6 6 6 7 7 6 7 7 7 6 7 5 6 6 6 6 6 6 7 6 6 7 7 7 7
2 2 4 4 8 10 10 6 9 9 10 9 8 9 9 9 8 6 9 9 8 7 7 7 7 7 6 5 5 5 5 6 7 7 6 6 6 6 6 6 5 5 6 6 6 6 6 7 6 5 6 6 7 7
1 6 8 9 8 11 7 8 7 8 8 9 10 10 8 7 6 8 9 8 6 5 4 5 7 7 7 7 7 7 7 6 7 6 6 7 7 6 7 6 4 4 4 5 5 5 5 5 6 5 5 6 6 7
9 11 11 15 8 9 9 8 8 8 9 9 10 10 8 6 9 9 10 7 6 5 6 5 5 5 7 8 8 7 6 6 6 6 6 6 6 6 6 4 3 3 3 4 5 4 5 5 6 5 5 5 7 7
13 10 12 9 8 8 9 10 9 9 9 11 10 9 8 10 10 11 9 6 6 6 6 6 6 6 5 5 6 5 5 5 6 7 6 7 6 6 6 6 5 3 2 3 4 4 5 5 5 5 5 7 9 6
14 11 8 5 7 7 10 9 8 10 10 10 9 9 9 12 11 9 8 6 7 6 5 5 5 6 5 4 3 3 5 5 5 5 5 6 6 5 4 5 5 4 2 2 3 3 4 5 5 5 4 5 6 6
9 9 11 8 8 9 10 11 10 10 9 7 8 10 11 11 11 8 7 6 6 5 5 5 5 5 4 4 3 4 5 5 4 5 6 6 5 5 3 2 1 8 4 4 3 3 4 4 3 3 4 5 6 5
9 7 8 9 8 9 10 11 10 7 6 9 9 9 9 7 6 6 5 5 5 4 4 4 4 3 4 3 3 3 3 3 4 5 5 6 5 4 1 1 1 1 2 3 7 7 5 5 4 3 3 4 4 4
9 6 8 9 12 13 9 6 6 5 6 6 6 6 7 6 5 4 4 5 6 5 4 3 5 4 5 5 5 4 4 4 4 5 7 7 5 3 2 2 2 1 1 1 2 2 7 4 6 3 4 4 4 4
7 8 9 9 10 7 6 5 5 5 6 7 6 8 9 7 6 5 5 5 6 5 5 7 6 5 5 5 6 6 6 5 5 5 7 6 5 5 4 3 1 1 1 1 2 2 3 4 4 3 4 4 4 5
8 10 10 11 9 7 6 7 8 8 8 8 8 7 7 8 9 7 5 5 6 7 7 6 7 6 4 4 4 4 7 3 4 6 7 8 8 7 6 4 3 1 1 1 2 2 2 3 4 3 3 4 4 4
9 10 9 10 10 10 8 9 9 9 8 9 8 8 8 9 12 8 5 4 5 6 6 5 5 5 5 4 5 5 6 5 6 10 10 11 11 10 8 7 4 4 4 5 5 5 6 5 5 6 5 5 6 5